Rome Ciampino, Italy

2:11 AM CET on March 24, 2017 (GMT +0100)
Ciampino

Weather History for LIRA - March, 2012

Change the Weather History Date:

Saturday, March 3, 2012

  Actual Average Record
Temperature  
Mean Temperature 55 °F -  
Max Temperature 62 °F 60 °F 66 °F (2001)
Min Temperature 48 °F 41 °F 30 °F (2005)
Degree Days  
Heating Degree Days 10    
Growing Degree Days 5 (Base 50)    
Moisture  
Dew Point 49 °F    
Average Humidity 89    
Maximum Humidity 100    
Minimum Humidity 59    
Precipitation  
Precipitation 0.00 in 0.09 in - ()
Sea Level Pressure  
Sea Level Pressure 30.23 in    
Wind  
Wind Speed 2 mph ()    
Max Wind Speed 7 mph    
Max Gust Speed -    
Visibility 2.3 miles    
Events Fog    
Averages and records for this station are not official NWS values.
T = Trace of Precipitation, MM = Missing Value Source: Averaged Metar Reports

Daily Weather History Graph

Daily Weather History Graph

Search for Another Location

Airport or City:

Trip Planner

Search our weather history database for the weather conditions in past years. The results will help you decide how hot, cold, wet, or windy it might be!

Date:

Astronomy

Mar. 03, 2012 Rise Set
Actual Time 6:41 AM CET 6:02 PM CET
Civil Twilight 6:13 AM CET 6:30 PM CET
Nautical Twilight 5:41 AM CET 7:02 PM CET
Astronomical Twilight 5:08 AM CET 7:35 PM CET
Moon 12:52 PM CET (3/3) 3:09 AM CET (3/3)
Length of Visible Light 12h 17m
Length of Day
11h 21m
Waxing Gibbous, 73% of the Moon is Illuminated
Mar 3
Waxing Gibbous
Mar 8
Full
Mar 15
Last Quarter
Mar 22
New
Mar 30
First Quarter

Hourly Weather History & Observations

Time (CET) Temp. Dew Point Humidity Pressure Visibility Wind Dir Wind Speed Gust Speed Precip Events Conditions
12:15 AM 50.0 °F 48.2 °F 94% 30.27 in 0.1 mi SE 2.3 mph - N/A Fog Fog
12:45 AM 50.0 °F 48.2 °F 94% 30.27 in 0.1 mi SW 1.2 mph - N/A Fog Fog
1:15 AM 50.0 °F 48.2 °F 94% 30.27 in 0.1 mi South 2.3 mph - N/A Fog Fog
1:45 AM 50.0 °F 48.2 °F 94% 30.27 in 0.1 mi SSW 1.2 mph - N/A Fog Fog
2:15 AM 48.2 °F 48.2 °F 100% 30.27 in 0.5 mi South 3.5 mph - N/A Fog Fog
2:45 AM 48.2 °F 46.4 °F 93% 30.27 in 0.9 mi South 2.3 mph - N/A Fog Overcast
3:15 AM 48.2 °F 46.4 °F 93% 30.27 in 0.9 mi SSE 2.3 mph - N/A Fog Overcast
3:45 AM 48.2 °F 46.4 °F 93% 30.27 in 0.9 mi Calm Calm - N/A Fog Overcast
4:15 AM 48.2 °F 46.4 °F 93% 30.27 in 0.9 mi South 1.2 mph - N/A Fog Overcast
4:45 AM 48.2 °F 46.4 °F 93% 30.24 in 0.9 mi Calm Calm - N/A Fog Overcast
5:15 AM 48.2 °F 46.4 °F 93% 30.24 in 0.9 mi ENE 1.2 mph - N/A Fog Overcast
5:45 AM 48.2 °F 46.4 °F 93% 30.24 in 0.9 mi West 1.2 mph - N/A Fog Overcast
6:15 AM 48.2 °F 46.4 °F 93% 30.24 in 1.0 mi Calm Calm - N/A Fog Overcast
6:45 AM 48.2 °F 46.4 °F 93% 30.24 in 1.0 mi Calm Calm - N/A   Mostly Cloudy
7:15 AM 48.2 °F 46.4 °F 93% 30.24 in 1.2 mi West 1.2 mph - N/A   Mostly Cloudy
7:45 AM 48.2 °F 46.4 °F 93% 30.24 in 1.2 mi Calm Calm - N/A   Mostly Cloudy
8:15 AM 48.2 °F 46.4 °F 93% 30.24 in 1.2 mi NNE 1.2 mph - N/A   Mostly Cloudy
8:45 AM 48.2 °F 46.4 °F 93% 30.24 in 1.2 mi Calm Calm - N/A   Mostly Cloudy
9:15 AM 48.2 °F 48.2 °F 100% 30.24 in 1.6 mi Calm Calm - N/A   Mostly Cloudy
9:45 AM 50.0 °F 48.2 °F 94% 30.27 in 2.2 mi NE 2.3 mph - N/A   Mostly Cloudy
10:15 AM 50.0 °F 48.2 °F 94% 30.27 in 2.8 mi NNE 3.5 mph - N/A   Scattered Clouds
10:45 AM 51.8 °F 50.0 °F 94% 30.27 in 3.1 mi NNE 3.5 mph - N/A   Scattered Clouds
11:15 AM 51.8 °F 50.0 °F 94% 30.27 in 3.1 mi North 2.3 mph - N/A   Scattered Clouds
11:45 AM 53.6 °F 50.0 °F 88% 30.27 in 5.0 mi Calm Calm - N/A   Scattered Clouds
12:15 PM 57.2 °F 50.0 °F 77% 30.27 in 6.2 mi South 2.3 mph - N/A   Scattered Clouds
12:45 PM 59.0 °F 51.8 °F 77% 30.27 in 6.2 mi ESE 1.2 mph - N/A   Partly Cloudy
1:15 PM 57.2 °F 51.8 °F 82% 30.27 in 6.2 mi WNW 2.3 mph - N/A   Partly Cloudy
1:45 PM 59.0 °F 51.8 °F 77% 30.24 in 6.2 mi WSW 3.5 mph - N/A   Partly Cloudy
2:15 PM 60.8 °F 51.8 °F 72% 30.24 in 6.2 mi SE 2.3 mph - N/A   Partly Cloudy
2:45 PM 60.8 °F 50.0 °F 68% 30.21 in - West 3.5 mph - N/A   Clear
3:15 PM 62.6 °F 50.0 °F 63% 30.21 in - North 3.5 mph - N/A   Clear
3:45 PM 62.6 °F 48.2 °F 59% 30.21 in - NNW 1.2 mph - N/A   Clear
4:15 PM 62.6 °F 53.6 °F 72% 30.18 in - West 6.9 mph - N/A   Clear
4:45 PM 60.8 °F 53.6 °F 77% 30.18 in - West 6.9 mph - N/A   Clear
5:15 PM 59.0 °F 53.6 °F 82% 30.18 in - WSW 5.8 mph - N/A   Clear
5:45 PM 55.4 °F 51.8 °F 88% 30.18 in - WSW 5.8 mph - N/A   Clear
6:15 PM 53.6 °F 51.8 °F 94% 30.18 in 3.1 mi WSW 2.3 mph - N/A   Mist
6:45 PM 53.6 °F 50.0 °F 88% 30.18 in 3.1 mi SW 3.5 mph - N/A   Partly Cloudy
7:15 PM 51.8 °F 50.0 °F 94% 30.18 in 3.1 mi SSW 4.6 mph - N/A   Partly Cloudy
7:45 PM 50.0 °F 48.2 °F 94% 30.18 in 3.1 mi SSW 4.6 mph - N/A   Scattered Clouds
8:15 PM 51.8 °F 50.0 °F 94% 30.18 in 3.1 mi SSW 5.8 mph - N/A   Scattered Clouds
8:45 PM 51.8 °F 50.0 °F 94% 30.18 in 2.5 mi SW 3.5 mph - N/A   Scattered Clouds
9:15 PM 51.8 °F 50.0 °F 94% 30.18 in 2.5 mi South 4.6 mph - N/A   Scattered Clouds
9:45 PM 51.8 °F 50.0 °F 94% 30.18 in 2.5 mi SSE 5.8 mph - N/A   Scattered Clouds
10:15 PM 51.8 °F 48.2 °F 88% 30.18 in 2.5 mi SSE 5.8 mph - N/A   Scattered Clouds
10:45 PM 51.8 °F 50.0 °F 94% 30.18 in 2.5 mi SSE 4.6 mph - N/A   Scattered Clouds
11:15 PM 51.8 °F 50.0 °F 94% 30.18 in 2.5 mi SSE 4.6 mph - N/A   Mostly Cloudy
11:45 PM 51.8 °F 48.2 °F 88% 30.18 in 2.5 mi SSE 3.5 mph - N/A   Mostly Cloudy